Weather History for KSVN - August, 2013

Change the Weather History Date:

Saturday, August 24, 2013

  Actual Average Record
Temperature  
Mean Temperature 78 °F -  
Max Temperature 85 °F 87 °F 98 °F (2002)
Min Temperature 73 °F 71 °F 68 °F (1996)
Cooling Degree Days 14    
Growing Degree Days 28 (Base 50)    
Moisture  
Dew Point 74 °F    
Average Humidity 86    
Maximum Humidity 95    
Minimum Humidity 70    
Precipitation  
Precipitation 0.01 in - - ()
Sea Level Pressure  
Sea Level Pressure 30.12 in    
Wind  
Wind Speed 5 mph (NE)    
Max Wind Speed 13 mph    
Max Gust Speed 17 mph    
Visibility 9 miles    
Events Fog , Rain , Thunderstorm    
Averages and records for this station are not official NWS values.
T = Trace of Precipitation, MM = Missing Value Source: NWS Daily Summary

Daily Weather History Graph

Daily Weather History Graph

Search for Another Location

Airport or City:

Trip Planner

Search our weather history database for the weather conditions in past years. The results will help you decide how hot, cold, wet, or windy it might be!

Date:

Astronomy

Aug. 24, 2013 Rise Set
Actual Time 6:55 AM EDT 7:58 PM EDT
Civil Twilight 6:29 AM EDT 8:23 PM EDT
Nautical Twilight 5:59 AM EDT 8:53 PM EDT
Astronomical Twilight 5:28 AM EDT 9:24 PM EDT
Moon 10:10 PM EDT (8/24) 10:35 AM EDT (8/24)
Length of Visible Light 13h 53m
Length of Day
13h 03m
Waning Gibbous, 84% of the Moon is Illuminated
Aug 24
Waning Gibbous
Aug 28
Last Quarter
Sep 5
New
Sep 12
First Quarter
Sep 19
Full

Hourly Weather History & Observations

Time (EDT) Temp. Heat Index Dew Point Humidity Pressure Visibility Wind Dir Wind Speed Gust Speed Precip Events Conditions
12:41 AM 77.0 °F - 75.2 °F 94% 30.02 in 10.0 mi West 3.5 mph - N/A   Clear
12:58 AM 76.5 °F - 74.7 °F 94% 30.03 in 10.0 mi WNW 3.5 mph - N/A   Clear
1:58 AM 75.9 °F - 74.1 °F 94% 30.03 in 10.0 mi WNW 1.2 mph - N/A   Clear
2:58 AM 75.4 °F - 73.2 °F 93% 30.04 in 10.0 mi Calm Calm - N/A   Clear
3:58 AM 74.7 °F - 73.2 °F 95% 30.05 in 10.0 mi WSW 2.3 mph - N/A   Clear
4:58 AM 74.5 °F - 72.7 °F 94% 30.06 in 10.0 mi West 2.3 mph - N/A   Clear
5:58 AM 73.8 °F - 72.3 °F 95% 30.06 in 10.0 mi West 2.3 mph - N/A   Clear
6:58 AM 73.4 °F - 72.0 °F 95% 30.07 in 10.0 mi WNW 2.3 mph - N/A   Clear
7:58 AM 73.9 °F - 72.0 °F 93% 30.09 in 10.0 mi Calm Calm - N/A   Clear
8:58 AM 76.5 °F - 72.9 °F 89% 30.11 in 10.0 mi Calm Calm - N/A   Clear
9:58 AM 81.5 °F 86.3 °F 72.7 °F 74% 30.11 in 10.0 mi Variable 4.6 mph - N/A   Clear
10:58 AM 83.1 °F 88.9 °F 73.0 °F 71% 30.14 in 10.0 mi Variable 3.5 mph - N/A   Clear
11:58 AM 84.4 °F 91.3 °F 73.6 °F 70% 30.14 in 10.0 mi NE 5.8 mph - N/A   Partly Cloudy
12:58 PM 83.3 °F 90.5 °F 74.7 °F 75% 30.14 in 10.0 mi NE 5.8 mph - N/A   Partly Cloudy
1:13 PM 82.4 °F 88.2 °F 73.4 °F 74% 30.13 in 10.0 mi East 11.5 mph - N/A   Mostly Cloudy
1:48 PM 80.6 °F 85.4 °F 73.4 °F 79% 30.12 in 10.0 mi East 12.7 mph - N/A Rain Light Rain
1:52 PM 80.6 °F 86.2 °F 75.2 °F 84% 30.12 in 10.0 mi ENE 11.5 mph - N/A Rain Heavy Rain
1:58 PM 79.7 °F - 74.7 °F 84% 30.14 in 10.0 mi NE 8.1 mph - 0.00 in Rain Heavy Rain
2:03 PM 78.8 °F - 75.2 °F 89% 30.13 in 1.0 mi East 9.2 mph - N/A Rain Rain
2:08 PM 77.0 °F - 75.2 °F 94% 30.13 in 0.5 mi East 9.2 mph - N/A Fog , Rain Heavy Rain
2:13 PM 77.0 °F - 75.2 °F 94% 30.13 in 1.2 mi East 8.1 mph - N/A Rain Heavy Rain
2:18 PM 77.0 °F - 75.2 °F 94% 30.13 in 6.0 mi East 8.1 mph - N/A Rain Light Rain
2:23 PM 77.0 °F - 75.2 °F 94% 30.13 in 9.0 mi East 6.9 mph - N/A Rain Rain
2:35 PM 78.8 °F - 75.2 °F 89% 30.13 in 10.0 mi ESE 10.4 mph - N/A Thunderstorm Mostly Cloudy
2:55 PM 78.8 °F - 75.2 °F 89% 30.14 in 10.0 mi ESE 6.9 mph - N/A Thunderstorm Mostly Cloudy
2:58 PM 78.8 °F - 75.2 °F 89% 30.14 in 10.0 mi ESE 6.9 mph - 0.00 in Thunderstorm Mostly Cloudy
3:03 PM 78.8 °F - 75.2 °F 89% 30.14 in 10.0 mi East 12.7 mph - N/A Thunderstorm Mostly Cloudy
3:48 PM 78.8 °F - 73.4 °F 83% 30.13 in 10.0 mi NE 4.6 mph - N/A   Mostly Cloudy
3:53 PM 78.8 °F - 73.4 °F 83% 30.13 in 10.0 mi ENE 4.6 mph - N/A   Scattered Clouds
3:58 PM 78.6 °F - 73.6 °F 84% 30.14 in 10.0 mi ENE 5.8 mph - N/A   Partly Cloudy
4:38 PM 80.6 °F 85.4 °F 73.4 °F 79% 30.12 in 10.0 mi ENE 9.2 mph - N/A   Mostly Cloudy
4:58 PM 81.0 °F 86.0 °F 73.4 °F 78% 30.13 in 10.0 mi ENE 11.5 mph 17.3 mph N/A   Mostly Cloudy
5:18 PM 80.6 °F 85.4 °F 73.4 °F 79% 30.12 in 10.0 mi NE 9.2 mph - N/A   Mostly Cloudy
5:58 PM 80.8 °F 85.4 °F 72.9 °F 77% 30.12 in 10.0 mi NE 6.9 mph - 0.01 in   Mostly Cloudy
6:28 PM 80.6 °F 85.4 °F 73.4 °F 79% 30.11 in 10.0 mi Variable 5.8 mph - N/A   Mostly Cloudy
6:33 PM 80.6 °F 85.4 °F 73.4 °F 79% 30.11 in 10.0 mi NNE 5.8 mph - N/A   Mostly Cloudy
6:58 PM 79.5 °F - 72.0 °F 78% 30.13 in 10.0 mi Variable 3.5 mph - N/A   Partly Cloudy
7:58 PM 78.1 °F - 72.0 °F 81% 30.14 in 10.0 mi NNE 4.6 mph - N/A   Clear
8:50 PM 77.0 °F - 71.6 °F 83% 30.15 in 10.0 mi NNE 2.3 mph - N/A   Light Drizzle
8:58 PM 77.5 °F - 72.7 °F 85% 30.16 in 10.0 mi NE 4.6 mph - 0.00 in Rain Light Rain
9:03 PM 77.0 °F - 73.4 °F 89% 30.15 in 10.0 mi NNE 5.8 mph - N/A Rain Light Rain
9:08 PM 75.2 °F - 73.4 °F 94% 30.15 in 10.0 mi NE 4.6 mph - N/A Rain Light Rain
9:19 PM 75.2 °F - 73.4 °F 94% 30.16 in 10.0 mi NNE 3.5 mph - N/A   Scattered Clouds
9:58 PM 76.5 °F - 73.4 °F 90% 30.17 in 10.0 mi NNE 3.5 mph - 0.00 in   Clear
10:58 PM 76.8 °F - 71.1 °F 82% 30.18 in 10.0 mi North 3.5 mph - N/A   Scattered Clouds
11:58 PM 76.6 °F - 71.1 °F 83% 30.19 in 10.0 mi NNE 4.6 mph - N/A   Mostly Cloudy